Skip Page Navigation
NASA JPL Caltech
NASA Logo - Jet Propulsion Laboratory + View the NASA Portal
+ Near-Earth Object (NEO) Program
Search JPL
JPL Home Earth Solar System Stars & Galaxies Technology
JPL Solar System Dynamics
BODIES ORBITS EPHEMERIDES TOOLS PHYSICAL DATA DISCOVERY FAQ SITE MAP
JPL Small-Body Database Browser
Search: [ help ]  
(2005 VX3)
Classification: TransNeptunian Object          SPK-ID: 3299811
Ephemeris | Orbit Diagram | Orbital Elements | Physical Parameters ]

[ show orbit diagram ]
Orbital Elements at Epoch 2456400.5 (2013-Apr-18.0) TDB
Reference: MPO97960 (heliocentric ecliptic J2000)
 Element Value Uncertainty (1-sigma)   Units 
e 0.9960067 n/a  
a 1034.102079 n/a AU
q 4.1294798 n/a AU
i 112.50906 n/a deg
node 255.14342 n/a deg
peri 196.45935 n/a deg
M 0.07872 n/a deg
tp 2453744.6295547
(2006-Jan-09.12955470)
n/a JED
period 12145748.9878542
33253.25
n/a
n/a
d
yr
n 0.00002964 n/a deg/d
Q 2064.0746782 n/a AU
  Orbit Determination Parameters
   # obs. used (total)      52  
   data-arc span      81 days  
   first obs. used      2005-11-01  
   last obs. used      2006-01-21  
   # oppositions      1  
   planetary ephem.      DE403  
   fit RMS      0.52  
   data source      MPC:mpo  
   producer      MPCW  

Additional Information
 T_jup = -0.959 
 MPC Scattered disk 
 1-opposition object seen prior 

Ephemeris | Orbit Diagram | Orbital Elements | Physical Parameters ]

Physical Parameter Table
Parameter Symbol Value Units Sigma Reference Notes
absolute magnitude H 14.1 mag n/a MPO97960  
Ephemeris | Orbit Diagram | Orbital Elements | Physical Parameters ]
ABOUT SSD CREDITS/AWARDS PRIVACY/COPYRIGHT GLOSSARY LINKS
FirstGov 2013-May-23 18:59 UT
(server date/time)  
NASA Home Page
Site Manager:   Donald K. Yeomans
Webmaster  Alan B. Chamberlin